Location: Arlington
(40.6323°N, 74.1651°W)
Time: 07:40:15
(UTC+00:00)

Cosmos 2322 Rocket - Pass Details

Date: 22 November 2019
Orbit: 832 x 851 km, 71.0° (Epoch: 08 December)

Event Time Altitude Azimuth Distance (km) Brightness Sun altitude
Rises 23:40:16 0° 208° (SSW) 3,363 5.8 -23.7°
Reaches altitude 10° 23:42:42 10° 210° (SSW) 2,433 5.0 -24.1°
Maximum altitude 23:48:16 71° 295° (WNW) 880 2.3 -25.2°
Enters shadow 23:50:44 34° 11° (N) 1,343 3.1 -25.7°
